星链-1724 (STARLINK-1724 )

导读 | 豆包AI

STARLINK-1724是美国太空探索技术公司(SpaceX)星链星座中的一颗卫星,于2020年9月3日发射入轨。星链项目旨在构建全球卫星互联网星座,该卫星承担为全球偏远地区、海洋空域等提供宽带互联网接入服务的任务,服务应急通信、航空航海联网等场景,也是星链低轨卫星通信网络组网建设的重要组成部分。

基本信息
目录编号:
46375
目录名称:
STARLINK-1724
国际标识:
2020-062BC
轨道中心:
EARTH
卫星名称:
星链-1724
卫星全名:
星链-1724 (STARLINK-1724 )
卫星状态:
在轨 (已飞行2039 天)
发射日期:
2020-09-03 UTC
国别 :
美国 (US)
星等 :
--
轨道信息
数据来源 国际轨道数据
星历时间: 2026-04-04T04:00:02+0800
7小时前
查看轨道信息
半长轴: 6769.392km
偏心率: 0.0007124
轨道倾角: 53.027°
近地点辐角 11.900°
升交点赤经 165.490°
平近点角 134.245°
近地点: 386.432km
远地点: 396.078km
周期: 92.381分钟
每日圈数: 15.587567
详细信息
固有亮度:
5
最大亮度:
2.5
卫星平台:
Starlink V1.0
覆盖范围:
全球
运营商:
太空探索技术公司
运营商所在国:
美国
制造商(研发单位):
太空探索技术公司
制造商所在国:
美国
使用方式:
暂无
卫星简介
星链(Starlink)计划是由太空探索技术公司(SpaceX)提出的一个巨型低轨卫星互联网星座项目,计划在2019年至2024年间在太空搭建由约1.2万颗卫星组成的“星链”网络,其中1584颗将部署在地球上空550千米处的近地轨道,并从2020年开始工作。该卫星仍在工作。
2D轨道图
3D轨道图
轨道高度分析图
轨道倾角分析图
轨道综合分析图
查看轨道综合分析图